Regional Weather Roundup
Issued by NWS

Home | Current Version | Previous Version | Text Only | Print | Product List | Glossary On
Versions: 1 2 3 4 5 6 7 8 9 10 11 12 13 14 15 16 17 18 19 20 21 22 23 24 25 26 27
000
ASUS44 KLIX 220713
RWRLA
LOUISIANA WEATHER ROUNDUP
NATIONAL WEATHER SERVICE NEW ORLEANS LA
200 AM CDT SUN OCT 22 2017

NOTE: "FAIR" INDICATES FEW OR NO CLOUDS BELOW 12,000 FEET WITH NO
      SIGNIFICANT WEATHER AND/OR OBSTRUCTIONS TO VISIBILITY.
      SKY/WX - SKY CONDITION AND SIGNIFICANT WEATHER.
      TMP - AIR TEMPERATURE.    DP   - DEWPOINT TEMPERATURE.
      RH  - RELATIVE HUMIDITY.  PRES - PRESSURE.
      HX  - HEAT INDEX.         WCI  - WIND CHILL INDEX.

*  THESE STATIONS ARE NOT NWS OR FAA STATIONS AND ARE NOT UNDER
   NWS QUALITY CONTROL.

LAZ040-048-061>063-065-066-069-220800-
SOUTHEAST LOUISIANA

CITY           SKY/WX    TMP DP  RH WIND       PRES   REMARKS
N.O. INTL ARPT LGT RAIN  77  75  93 SE13      30.03F
N.O. LAKEFRONT CLOUDY   N/A N/A N/A MISG      30.04S
N.O. DOWNTOWN* LGT RAIN  78  73  84 SE8       30.04S
RESERVE*       CLOUDY    77  73  86 SE7       30.03F
SLIDELL        MOCLDY    77  71  82 E3        30.04S
BATON ROUGE    CLOUDY    75  73  93 SE6       30.02S
BOOTHVILLE     CLOUDY    82  74  76 E10       30.04F
BELLE CHASSE   NOT AVBL
BOGALUSA*      FAIR      73  69  88 E3        30.08F
GALLIANO*      TSTM      77  73  88 SE3       30.02F
NEW ROADS*     TSTM      68  67  95 N16G22    29.99F
GONZALES*      CLOUDY    75  73  93 S6        30.03R
HAMMOND*       CLOUDY    77  70  78 E8        30.03F
HOUMA*         CLOUDY   N/A N/A N/A SE3       30.02F
PORT FOURCHON* CLOUDY    79  77  94 SE14      30.02F FOG

$$

LAZ041-044-053-054-220800-
SOUTHWEST LOUISIANA

CITY           SKY/WX    TMP DP  RH WIND       PRES   REMARKS
LAKE CHARLES   CLOUDY    75  73  93 E7        29.97F
LAFAYETTE      TSTM      72  72 100 CALM      30.03R
PATTERSON      CLOUDY    75  73  93 SE13      30.01F
SALT POINT       N/A     76  75  97 E6        29.99S
NEW IBERIA     TSTM      70  65  84 SE31G40   30.05R
CHENAULT AIRPK   N/A     73  72  97 E10G20    29.98F

$$

LAZ027-028-220800-
CENTRAL LOUISIANA

CITY           SKY/WX    TMP DP  RH WIND       PRES   REMARKS
FORT POLK      CLOUDY    71  67  90 SE10      29.99S
ALEXANDRIA INT PTCLDY    69  67  93 SE12      29.98S
ALEXANDRIA     CLEAR     70  68  93 S9G16     29.99F

$$

LAZ001-002-220800-
NORTHWEST LOUISIANA

CITY           SKY/WX    TMP DP  RH WIND       PRES   REMARKS
SHREVEPORT     CLOUDY    74  70  87 S12       29.93F
BARKSDALE AFB  PTCLDY    70  67  91 S8        29.94F
DTN SHREVEPORT MOCLDY    73  69  87 SE7       29.94F

$$

LAZ014-016-220800-
NORTHEAST LOUISIANA

CITY           SKY/WX    TMP DP  RH WIND       PRES   REMARKS
MONROE         MOCLDY    74  71  91 S8        29.98S
TALLULAH       CLOUDY    75  71  87 S16G28    29.96F

$$





USA.gov is the U.S. government's official web portal to all federal, state and local government web resources and services.